Ouarzazate, Morocco

2:38 AM WET on February 24, 2018 (GMT +0000)
Ouarzazate

Weather History for GMMZ - August, 2013

Change the Weather History Date:

Tuesday, August 13, 2013

  Actual Average Record
Temperature  
Mean Temperature 90 °F -  
Max Temperature 101 °F 95 °F - ()
Min Temperature 78 °F 66 °F - ()
Cooling Degree Days 24    
Growing Degree Days 40 (Base 50)    
Moisture  
Dew Point 32 °F    
Average Humidity 11    
Maximum Humidity 19    
Minimum Humidity 4    
Precipitation  
Precipitation 0.00 in 0.01 in - ()
Sea Level Pressure  
Sea Level Pressure 30.11 in    
Wind  
Wind Speed 3 mph ()    
Max Wind Speed 17 mph    
Max Gust Speed -    
Visibility 7.8 miles    
Events      
T = Trace of Precipitation, MM = Missing Value Source: Averaged Metar Reports

Daily Weather History Graph

Daily Weather History Graph

Search for Another Location

Airport or City:

Trip Planner

Search our weather history database for the weather conditions in past years. The results will help you decide how hot, cold, wet, or windy it might be!

Date:

Astronomy

Aug. 13, 2013 Rise Set
Actual Time 6:52 AM WEST 8:11 PM WEST
Civil Twilight 6:26 AM WEST 8:37 PM WEST
Nautical Twilight 5:56 AM WEST 9:07 PM WEST
Astronomical Twilight 5:24 AM WEST 9:39 PM WEST
Moon 1:01 PM WEST (8/13) No Moon Set
Length of Visible Light 14h 10m
Length of Day
13h 19m
Waxing Crescent, 39% of the Moon is Illuminated
Aug 13
Waxing Crescent
Aug 14
First Quarter
Aug 21
Full
Aug 28
Last Quarter
Sep 5
New

Hourly Weather History & Observations

Time (WEST) Temp. Dew Point Humidity Pressure Visibility Wind Dir Wind Speed Gust Speed Precip Events Conditions
12:00 AM 91.4 °F 30.2 °F 11% 30.09 in 6.2 mi Variable 1.2 mph - N/A   Scattered Clouds
1:00 AM 91.4 °F 26.6 °F 10% 30.09 in 6.2 mi Calm Calm - N/A   Partly Cloudy
3:00 AM 87.8 °F 28.4 °F 12% 30.09 in - Variable 2.3 mph - N/A   Clear
4:00 AM 89.6 °F 32.0 °F 13% 30.09 in - South 6.9 mph - N/A   Clear
5:00 AM 87.8 °F 32.0 °F 14% 30.09 in - Variable 3.5 mph - N/A   Clear
6:00 AM 82.4 °F 35.6 °F 19% 30.12 in - Variable 1.2 mph - N/A   Clear
7:00 AM 80.6 °F 30.2 °F 16% 30.12 in - Calm Calm - N/A   Clear
8:00 AM 78.8 °F 28.4 °F 16% 30.15 in - West 2.3 mph - N/A   Clear
9:00 AM 87.8 °F 33.8 °F 15% 30.15 in - Calm Calm - N/A   Clear
10:00 AM 90 °F 35 °F 7%  in 12 mi Calm Calm - -   Partly Cloudy
10:00 AM 89.6 °F 33.8 °F 14% 30.18 in - Calm Calm - N/A   Clear
11:00 AM 93.2 °F 33.8 °F 12% 30.15 in - Variable 2.3 mph - N/A   Clear
12:00 PM 96.8 °F 33.8 °F 11% 30.15 in 6.2 mi Variable 1.2 mph - N/A   Partly Cloudy
1:00 PM 97 °F 34 °F 5%  in 12 mi SSE 2.3 mph - -   Scattered Clouds
1:00 PM 96.8 °F 33.8 °F 11% 30.15 in 6.2 mi Variable 2.3 mph - N/A   Partly Cloudy
2:00 PM 98.6 °F 33.8 °F 10% 30.12 in 6.2 mi Variable 3.5 mph - N/A   Scattered Clouds
3:00 PM 98.6 °F 30.2 °F 9% 30.09 in 6.2 mi Variable 3.5 mph - N/A   Partly Cloudy
4:00 PM 96 °F 33 °F 5%  in 12 mi West 17.3 mph - -   Mostly Cloudy
4:00 PM 96.8 °F 33.8 °F 11% 30.12 in 6.2 mi West 17.3 mph - N/A   Partly Cloudy
5:00 PM 98.6 °F 30.2 °F 9% 30.09 in 6.2 mi WNW 16.1 mph - N/A   Partly Cloudy
6:00 PM 96.8 °F 28.4 °F 9% 30.09 in 6.2 mi West 6.9 mph - N/A   Partly Cloudy
7:00 PM 97 °F 29 °F 4%  in 12 mi West 1.2 mph - -   Mostly Cloudy
7:00 PM 96.8 °F 28.4 °F 9% 30.09 in 6.2 mi Variable 1.2 mph - N/A   Partly Cloudy
8:00 PM 96.8 °F 30.2 °F 10% 30.09 in 6.2 mi SSW 5.8 mph - N/A   Scattered Clouds
9:00 PM 95.0 °F 32.0 °F 11% 30.09 in 6.2 mi SSW 4.6 mph - N/A   Scattered Clouds
10:00 PM 94 °F 32 °F 5%  in 12 mi SSW 1.2 mph - -   Scattered Clouds
10:00 PM 95.0 °F 32.0 °F 11% 30.12 in 6.2 mi Variable 1.2 mph - N/A   Scattered Clouds
11:00 PM 91.4 °F 30.2 °F 11% 30.12 in - West 5.8 mph - N/A   Clear